DW6193 Weather Reports


Display with metric or nautical units.
time (UTC)temp
F
wind
direction
speed
MPH
gust
MPH
rain 1hr
in
rain 24hr
in
rain mn
in
humidity
%
barometer
mb
20260903121548 54 0 1.0 8.0 0.00 0.00 0.00 1011.2
20260903121028 54 295 1.0 8.0 0.00 0.00 0.00 1011.2
20260903120528 55 210 2.0 11.0 0.00 0.00 0.00 1011.2
20260903120052 54 252 3.0 11.0 0.00 0.00 0.00 1011.2
20260903115527 54 248 2.0 7.0 0.00 0.00 0.00 1011.2
20260903115027 55 277 1.0 7.0 0.00 0.00 0.00 1011.3
20260903114604 55 213 2.0 13.0 0.00 0.00 0.00 1011.2
20260903114027 55 134 3.0 13.0 0.00 0.00 0.00 1011.2
20260903113529 55 232 3.0 10.0 0.00 0.00 0.00 1011.3
20260903113044 54 267 1.0 7.0 0.00 0.00 0.00 1011.2
20260903112526 55 262 2.0 10.0 0.00 0.00 0.00 1011.2
20260903112036 55 236 3.0 10.0 0.00 0.00 0.00 1011.1
20260903111550 55 297 2.0 10.0 0.00 0.00 0.00 1011.2
20260903111029 55 128 3.0 10.0 0.00 0.00 0.00 1011.2
20260903110528 54 243 1.0 10.0 0.00 0.00 0.00 1011.1
20260903110053 54 183 2.0 8.0 0.00 0.00 0.00 1011.1
20260903105527 55 147 3.0 11.0 0.00 0.00 0.00 1011.1
20260903105027 54 140 2.0 11.0 0.00 0.00 0.00 1011.2
20260903104549 54 265 4.0 11.0 0.00 0.00 0.00 1011.2
20260903104027 54 243 4.0 12.0 0.00 0.00 0.00 1011.1
20260903103525 54 276 3.0 12.0 0.00 0.00 0.00 1011.3
20260903103051 54 237 3.0 7.0 0.00 0.00 0.00 1011.3
20260903102526 54 33 1.0 7.0 0.00 0.00 0.00 1011.2
20260903102028 54 295 1.0 10.0 0.00 0.00 0.00 1011.1
20260903101556 54 183 2.0 10.0 0.00 0.00 0.00 1010.9
20260903101027 54 309 4.0 15.0 0.00 0.00 0.00 1010.9
20260903100528 54 144 3.0 15.0 0.00 0.00 0.00 1011.1
20260903100049 54 280 3.0 9.0 0.00 0.00 0.00 1010.9
20260903095526 54 133 1.0 10.0 0.00 0.00 0.00 1011.1
20260903095028 54 141 3.0 11.0 0.00 0.00 0.00 1011.1
20260903094556 53 118 4.0 11.0 0.00 0.00 0.00 1011.1
20260903094028 53 119 4.0 10.0 0.00 0.00 0.00 1011.1
20260903093534 53 243 1.0 5.0 0.00 0.00 0.00 1011.1
20260903093120 53 311 2.0 5.0 0.00 0.00 0.00 1011.1
20260903092529 53 284 0.0 5.0 0.00 0.00 0.00 1011.1
20260903092027 53 0 1.0 9.0 0.00 0.00 0.00 1011.1
20260903091555 53 133 2.0 9.0 0.00 0.00 0.00 1011.1
20260903091028 53 243 3.0 12.0 0.00 0.00 0.00 1011.1
20260903090527 53 144 3.0 12.0 0.00 0.00 0.00 1011.1
20260903090050 53 275 4.0 12.0 0.00 0.00 0.00 1011.0
20260903085527 53 283 3.0 9.0 0.00 0.00 0.00 1011.0
20260903085026 53 309 2.0 9.0 0.00 0.00 0.00 1011.1
20260903084547 53 243 3.0 9.0 0.00 0.00 0.00 1011.2
20260903084025 53 273 2.0 9.0 0.00 0.00 0.00 1011.2
20260903083526 53 207 3.0 10.0 0.00 0.00 0.00 1011.1
20260903083044 53 285 3.0 10.0 0.00 0.00 0.00 1011.1
20260903082531 53 277 4.0 10.0 0.00 0.00 0.00 1011.2
20260903082024 52 170 4.0 13.0 0.00 0.00 0.00 1011.3
20260903081554 53 297 5.0 17.0 0.00 0.00 0.00 1011.2
20260903081030 52 285 7.0 17.0 0.00 0.00 0.00 1011.2
20260903080532 53 272 6.0 15.0 0.00 0.00 0.00 1011.3
20260903080048 52 275 6.0 17.0 0.00 0.00 0.00 1011.3
20260903075525 52 210 7.0 17.0 0.00 0.00 0.00 1011.2
20260903075031 52 277 7.0 18.0 0.00 0.00 0.00 1011.2
20260903074545 52 268 8.0 20.0 0.00 0.00 0.00 1011.2
20260903074028 52 285 8.0 20.0 0.00 0.00 0.00 1011.3
20260903073527 52 290 6.0 13.0 0.00 0.00 0.00 1011.2
20260903073052 52 223 4.0 12.0 0.00 0.00 0.00 1011.1
20260903072526 52 120 3.0 13.0 0.00 0.00 0.00 1011.3
20260903072027 52 282 4.0 15.0 0.00 0.00 0.00 1011.3
20260903071610 52 246 6.0 15.0 0.00 0.00 0.00 1011.3
20260903071023 52 254 7.0 16.0 0.00 0.00 0.00 1011.3
20260903070531 52 241 5.0 16.0 0.00 0.00 0.00 1011.2
20260903070059 52 268 7.0 16.0 0.00 0.00 0.00 1011.2
20260903065525 53 291 8.0 16.0 0.00 0.00 0.00 1011.1
20260903065025 54 307 7.0 14.0 0.00 0.00 0.00 1011.2
20260903064543 54 265 4.0 13.0 0.00 0.00 0.00 1011.2
20260903064027 55 247 3.0 13.0 0.00 0.00 0.00 1011.1
20260903063527 55 285 5.0 12.0 0.00 0.00 0.00 1011.0
20260903063059 55 283 5.0 12.0 0.00 0.00 0.00 1011.1
20260903062527 55 171 3.0 12.0 0.00 0.00 0.00 1010.9
20260903062026 55 274 6.0 13.0 0.00 0.00 0.00 1010.9
20260903061546 55 285 7.0 16.0 0.00 0.00 0.00 1010.9
20260903061026 55 274 7.0 16.0 0.00 0.00 0.00 1010.8
20260903060524 55 274 7.0 14.0 0.00 0.00 0.00 1010.9
20260903060048 55 305 6.0 14.0 0.00 0.00 0.00 1010.9
20260903055525 55 261 7.0 14.0 0.00 0.00 0.00 1011.0
20260903055024 55 275 8.0 14.0 0.00 0.00 0.00 1011.0
20260903054546 55 300 7.0 14.0 0.00 0.00 0.00 1011.0
20260903054024 55 207 6.0 14.0 0.00 0.00 0.00 1011.1
20260903053524 55 282 6.0 14.0 0.00 0.00 0.00 1011.2
20260903053052 55 286 8.0 14.0 0.00 0.00 0.00 1011.1
20260903052527 55 263 8.0 14.0 0.00 0.00 0.00 1011.0
20260903052025 55 309 8.0 18.0 0.00 0.00 0.00 1011.1
20260903051550 55 232 8.0 18.0 0.00 0.00 0.00 1010.9
20260903051026 55 261 8.0 16.0 0.00 0.00 0.00 1010.9
20260903050524 55 295 7.0 16.0 0.00 0.00 0.00 1010.8
20260903050056 55 268 8.0 16.0 0.00 0.00 0.00 1010.9
20260903045524 55 272 8.0 16.0 0.00 0.00 0.00 1010.8
20260903045024 55 250 8.0 15.0 0.00 0.00 0.00 1010.8
20260903044559 55 275 7.0 15.0 0.00 0.00 0.00 1010.6
20260903044028 55 221 6.0 17.0 0.00 0.00 0.00 1010.7
20260903043523 55 265 7.0 17.0 0.00 0.00 0.00 1010.5
20260903043047 55 272 7.0 14.0 0.00 0.00 0.00 1010.5
20260903042530 55 265 7.0 13.0 0.00 0.00 0.00 1010.3
20260903042024 55 268 5.0 14.0 0.00 0.00 0.00 1010.3
20260903041543 54 265 6.0 16.0 0.00 0.00 0.00 1010.2
20260903041025 54 288 6.0 16.0 0.00 0.00 0.00 1010.2
20260903040524 54 257 7.0 16.0 0.00 0.00 0.00 1010.4
20260903040058 54 257 7.0 18.0 0.00 0.00 0.00 1010.1
20260903035523 54 268 8.0 18.0 0.00 0.00 0.00 1010.1
20260903035023 54 207 8.0 16.0 0.00 0.00 0.00 1009.9
20260903034547 54 268 7.0 16.0 0.00 0.00 0.00 1010.0
20260903034027 54 309 8.0 17.0 0.00 0.00 0.00 1010.0
20260903033527 55 295 8.0 17.0 0.00 0.00 0.00 1010.0
20260903033047 55 268 7.0 14.0 0.00 0.00 0.00 1010.0
20260903032526 55 207 6.0 14.0 0.00 0.00 0.00 1010.1
20260903032026 55 280 7.0 13.0 0.00 0.00 0.00 1010.1
20260903031541 55 243 6.0 14.0 0.00 0.00 0.00 1009.8
20260903031025 55 239 6.0 16.0 0.00 0.00 0.00 1009.8
20260903030529 55 307 7.0 16.0 0.00 0.00 0.00 1009.8
20260903030052 55 211 8.0 16.0 0.00 0.00 0.00 1009.8
20260903025528 55 259 7.0 16.0 0.00 0.00 0.00 1009.6
20260903025028 55 270 8.0 16.0 0.00 0.00 0.00 1009.6
20260903024549 55 268 7.0 16.0 0.00 0.00 0.00 1009.6
20260903024028 55 229 9.0 18.0 0.00 0.00 0.00 1009.8
20260903023527 55 288 9.0 19.0 0.00 0.00 0.00 1009.5
20260903023048 55 272 9.0 19.0 0.00 0.00 0.00 1009.7
20260903022526 55 267 10.0 18.0 0.00 0.00 0.00 1009.5
20260903022025 55 250 9.0 17.0 0.00 0.00 0.00 1009.4
20260903021544 55 288 9.0 19.0 0.00 0.00 0.00 1009.4
20260903021025 55 267 10.0 19.0 0.00 0.00 0.00 1009.2
20260903020525 55 278 8.0 17.0 0.00 0.00 0.00 1009.4
20260903020055 55 282 9.0 17.0 0.00 0.00 0.00 1009.3
20260903015527 55 236 10.0 17.0 0.00 0.00 0.00 1009.2
20260903015027 55 231 9.0 15.0 0.00 0.00 0.00 1009.3
20260903014557 55 272 8.0 13.0 0.00 0.00 0.00 1009.2
20260903014029 55 265 7.0 13.0 0.00 0.00 0.00 1009.2
20260903013525 55 265 7.0 13.0 0.00 0.00 0.00 1009.3
20260903013055 55 265 7.0 14.0 0.00 0.00 0.00 1009.3
20260903012525 55 261 8.0 14.0 0.00 0.00 0.00 1009.2
20260903012024 55 286 7.0 14.0 0.00 0.00 0.00 1009.1
20260903011551 55 236 8.0 14.0 0.00 0.00 0.00 1009.1
20260903011029 55 270 8.0 16.0 0.00 0.00 0.00 1009.1
20260903010527 55 213 8.0 16.0 0.00 0.00 0.00 1009.0
20260903010049 55 268 7.0 16.0 0.00 0.00 0.00 1009.0
20260903005523 56 253 7.0 16.0 0.00 0.00 0.00 1009.0
20260903005025 55 284 8.0 16.0 0.00 0.00 0.00 1008.8
20260903004551 55 285 9.0 16.0 0.00 0.00 0.00 1009.0
20260903004028 55 282 8.0 16.0 0.00 0.00 0.00 1008.7
20260903003526 55 291 9.0 15.0 0.00 0.00 0.00 1008.9
20260903003057 56 290 5.0 15.0 0.00 0.00 0.00 1008.9
20260903002528 56 275 5.0 13.0 0.00 0.00 0.00 1008.9
20260903002026 57 288 2.0 7.0 0.00 0.00 0.00 1008.9
20260903001543 57 302 1.0 5.0 0.00 0.00 0.00 1008.7
20260903001025 57 198 1.0 4.0 0.00 0.00 0.00 1008.8
20260903000525 57 232 1.0 6.0 0.00 0.00 0.00 1008.7
20260903000111 58 64 1.0 6.0 0.00 0.00 0.00 1008.9
20260902235527 58 311 1.0 6.0 0.00 0.00 0.00 1008.6
20260902235025 58 311 1.0 3.0 0.00 0.00 0.00 1008.7
20260902234548 58 268 1.0 3.0 0.00 0.00 0.00 1008.8
20260902234027 58 22 1.0 3.0 0.00 0.00 0.00 1008.7
20260902233527 58 280 1.0 4.0 0.00 0.00 0.00 1008.7
20260902233046 58 12 1.0 4.0 0.00 0.00 0.00 1008.7
20260902232529 57 299 1.0 8.0 0.00 0.00 0.00 1008.7
20260902232025 57 268 1.0 8.0 0.00 0.00 0.00 1008.7
20260902231555 57 302 2.0 10.0 0.00 0.00 0.00 1008.5
20260902231026 57 116 5.0 10.0 0.00 0.00 0.00 1008.4
20260902230526 57 105 6.0 10.0 0.00 0.00 0.00 1008.5
20260902230054 57 115 4.0 12.0 0.00 0.00 0.00 1008.4
20260902225528 57 124 6.0 12.0 0.00 0.00 0.00 1008.5
20260902225027 57 99 8.0 12.0 0.00 0.00 0.00 1008.3
20260902224604 57 122 8.0 11.0 0.00 0.00 0.00 1008.3
20260902224027 57 106 7.0 11.0 0.00 0.00 0.00 1008.5
20260902223526 57 120 8.0 11.0 0.00 0.00 0.00 1008.5
20260902223108 57 121 8.0 11.0 0.00 0.00 0.00 1008.5
20260902222527 57 120 7.0 13.0 0.00 0.00 0.00 1008.4
20260902222029 57 117 9.0 13.0 0.00 0.00 0.00 1008.4
20260902221554 57 100 9.0 13.0 0.00 0.00 0.00 1008.5
20260902221027 57 101 10.0 14.0 0.00 0.00 0.00 1008.4
20260902220525 57 126 9.0 14.0 0.00 0.00 0.00 1008.3
20260902220053 57 133 9.0 13.0 0.00 0.00 0.00 1008.3
20260902215527 57 81 8.0 13.0 0.00 0.00 0.00 1008.2
20260902215028 56 111 9.0 14.0 0.00 0.00 0.00 1008.3
20260902214610 57 99 8.0 16.0 0.00 0.00 0.00 1008.3
20260902214026 57 135 10.0 16.0 0.00 0.00 0.00 1008.2
20260902213526 57 122 9.0 16.0 0.00 0.00 0.00 1008.2
20260902213052 56 110 11.0 16.0 0.00 0.00 0.00 1008.3
20260902212527 56 81 13.0 16.0 0.00 0.00 0.00 1008.2
20260902212027 57 101 11.0 17.0 0.00 0.00 0.00 1008.3
20260902211545 56 101 12.0 17.0 0.00 0.00 0.00 1008.2
20260902211026 56 122 10.0 14.0 0.00 0.00 0.00 1008.4
20260902210526 56 119 9.0 13.0 0.00 0.00 0.00 1008.2
20260902210047 56 117 11.0 15.0 0.00 0.00 0.00 1008.2
20260902205525 56 124 9.0 15.0 0.00 0.00 0.00 1008.2
20260902205026 56 121 10.0 16.0 0.00 0.00 0.00 1008.1
20260902204606 56 121 13.0 17.0 0.00 0.00 0.00 1007.9
20260902204027 56 116 12.0 17.0 0.00 0.00 0.00 1008.0
20260902203525 56 110 13.0 17.0 0.00 0.00 0.00 1007.8
20260902203049 56 113 11.0 15.0 0.00 0.00 0.00 1007.8
20260902202527 57 68 11.0 14.0 0.00 0.00 0.00 1007.8
20260902202029 57 103 9.0 14.0 0.00 0.00 0.00 1007.8
20260902201556 57 122 10.0 15.0 0.00 0.00 0.00 1007.9
20260902201029 57 110 11.0 15.0 0.00 0.00 0.00 1007.8
20260902200526 57 109 11.0 14.0 0.00 0.00 0.00 1008.0
20260902200051 57 109 11.0 14.0 0.00 0.00 0.00 1007.9
20260902195527 57 114 10.0 13.0 0.00 0.00 0.00 1007.9
20260902195027 58 109 5.0 10.0 0.00 0.00 0.00 1007.9
20260902194551 58 305 5.0 10.0 0.00 0.00 0.00 1008.1
20260902194027 58 121 5.0 11.0 0.00 0.00 0.00 1008.1
20260902193529 58 76 6.0 11.0 0.00 0.00 0.00 1008.0
20260902193046 58 108 4.0 10.0 0.00 0.00 0.00 1008.2
20260902192525 58 114 6.0 10.0 0.00 0.00 0.00 1008.3
20260902192030 58 53 4.0 8.0 0.00 0.00 0.00 1008.5
20260902191544 58 103 3.0 7.0 0.00 0.00 0.00 1008.4
20260902191034 59 124 1.0 3.0 0.00 0.00 0.00 1008.7
20260902190527 58 99 1.0 4.0 0.00 0.00 0.00 1008.5
20260902190053 58 286 1.0 4.0 0.00 0.00 0.00 1008.7
20260902185526 58 285 0.0 6.0 0.00 0.00 0.00 1008.8
20260902185028 57 311 1.0 6.0 0.00 0.00 0.00 1009.0
20260902184625 57 259 1.0 7.0 0.00 0.00 0.00 1009.1
20260902184028 57 216 3.0 8.0 0.00 0.00 0.00 1009.0
20260902183526 57 288 4.0 12.0 0.00 0.00 0.00 1008.8
20260902183044 57 218 7.0 13.0 0.00 0.00 0.00 1008.8
20260902182528 56 293 6.0 13.0 0.00 0.00 0.00 1009.1
20260902182026 56 304 7.0 12.0 0.00 0.00 0.00 1009.0
20260902181546 58 141 3.0 14.0 0.00 0.00 0.00 1009.0
20260902181030 57 126 5.0 14.0 0.00 0.00 0.00 1008.8
20260902180527 58 107 11.0 16.0 0.00 0.00 0.00 1008.7
20260902180058 58 145 6.0 16.0 0.00 0.00 0.00 1008.6
20260902175525 59 113 12.0 17.0 0.00 0.00 0.00 1008.3
20260902175028 59 114 13.0 18.0 0.00 0.00 0.00 1008.2
20260902174554 58 103 13.0 18.0 0.00 0.00 0.00 1008.2
20260902174027 58 119 13.0 18.0 0.00 0.00 0.00 1008.2
20260902173527 58 151 10.0 18.0 0.00 0.00 0.00 1008.3
20260902173048 60 141 10.0 18.0 0.00 0.00 0.00 1008.4
20260902172526 60 110 10.0 17.0 0.00 0.00 0.00 1008.1
20260902172026 60 114 10.0 20.0 0.00 0.00 0.00 1008.3
20260902171547 60 111 6.0 21.0 0.00 0.00 0.00 1008.2
20260902171025 60 106 11.0 23.0 0.00 0.00 0.00 1008.3
20260902170527 60 112 13.0 23.0 0.00 0.00 0.00 1008.2
20260902170043 61 108 15.0 23.0 0.00 0.00 0.00 1008.3
20260902165525 61 99 10.0 22.0 0.00 0.00 0.00 1007.9
20260902165026 61 103 12.0 25.0 0.00 0.00 0.00 1008.1
20260902164554 61 108 13.0 25.0 0.00 0.00 0.00 1008.1
20260902164028 61 103 10.0 23.0 0.00 0.00 0.00 1008.0
20260902163529 61 103 13.0 23.0 0.00 0.00 0.00 1008.0
20260902163047 61 103 11.0 24.0 0.00 0.00 0.00 1008.3
20260902162530 61 108 11.0 27.0 0.00 0.00 0.00 1008.1
20260902162026 61 81 15.0 27.0 0.00 0.00 0.00 1008.2
20260902161544 60 115 12.0 26.0 0.00 0.00 0.00 1008.2
20260902161029 60 103 10.0 29.0 0.00 0.00 0.00 1008.2
20260902160530 60 64 12.0 29.0 0.00 0.00 0.00 1008.3
20260902160050 60 101 12.0 23.0 0.00 0.00 0.00 1008.1
20260902155527 60 99 12.0 25.0 0.00 0.00 0.00 1008.2
20260902155030 60 118 11.0 25.0 0.00 0.00 0.00 1008.4
20260902154547 60 115 13.0 24.0 0.00 0.00 0.00 1008.5
20260902154028 60 105 11.0 22.0 0.00 0.00 0.00 1008.5
20260902153528 60 103 11.0 22.0 0.00 0.00 0.00 1008.5
20260902153044 60 130 13.0 21.0 0.00 0.00 0.00 1008.5
20260902152525 60 99 14.0 22.0 0.00 0.00 0.00 1008.7
20260902152025 60 115 14.0 22.0 0.00 0.00 0.00 1008.7
20260902151552 60 105 11.0 19.0 0.00 0.00 0.00 1008.7
20260902151029 60 105 13.0 19.0 0.00 0.00 0.00 1008.8
20260902150526 60 77 9.0 21.0 0.00 0.00 0.00 1008.7
20260902150050 60 49 10.0 21.0 0.00 0.00 0.00 1008.8
20260902145529 60 123 10.0 19.0 0.00 0.00 0.00 1009.0
20260902145026 60 74 10.0 19.0 0.00 0.00 0.00 1008.9
20260902144554 60 183 10.0 19.0 0.00 0.00 0.00 1009.0
20260902144028 60 111 10.0 19.0 0.00 0.00 0.00 1009.1
20260902143525 60 105 10.0 19.0 0.00 0.00 0.00 1009.2
20260902143044 60 111 11.0 17.0 0.00 0.00 0.00 1009.3
20260902142526 60 99 10.0 17.0 0.00 0.00 0.00 1009.2
20260902142025 60 100 11.0 17.0 0.00 0.00 0.00 1009.4
20260902141549 60 44 9.0 14.0 0.00 0.00 0.00 1009.5
20260902141025 60 122 7.0 13.0 0.00 0.00 0.00 1009.7
20260902140524 59 108 9.0 13.0 0.00 0.00 0.00 1009.7
20260902140046 59 111 8.0 12.0 0.00 0.00 0.00 1009.7
20260902135527 59 111 6.0 11.0 0.00 0.00 0.00 1009.8
20260902135024 59 130 7.0 13.0 0.00 0.00 0.00 1009.8
20260902134545 59 134 8.0 13.0 0.00 0.00 0.00 1010.0
20260902134025 59 120 8.0 10.0 0.00 0.00 0.00 1010.1
20260902133529 59 119 7.0 10.0 0.00 0.00 0.00 1010.0
20260902133057 59 117 6.0 9.0 0.00 0.00 0.00 1010.1
20260902132528 59 119 6.0 13.0 0.00 0.00 0.00 1010.2
20260902132028 59 123 8.0 13.0 0.00 0.00 0.00 1010.3
20260902131555 59 108 7.0 11.0 0.00 0.00 0.00 1010.3
20260902131026 59 105 2.0 6.0 0.00 0.00 0.00 1010.4
20260902130525 59 120 1.0 6.0 0.00 0.00 0.00 1010.5
20260902130042 59 128 2.0 5.0 0.00 0.00 0.00 1010.6
20260902125527 59 0 1.0 6.0 0.00 0.00 0.00 1010.6
20260902125026 59 114 1.0 6.0 0.00 0.00 0.00 1010.7
20260902124551 60 131 1.0 7.0 0.00 0.00 0.00 1010.7
20260902124027 60 116 2.0 7.0 0.00 0.00 0.00 1010.8
20260902123524 60 112 2.0 7.0 0.00 0.00 0.00 1011.0
20260902123045 60 120 3.0 5.0 0.00 0.00 0.00 1011.0
20260902122532 60 123 2.0 5.0 0.00 0.00 0.00 1011.0
20260902122025 60 99 2.0 5.0 0.00 0.00 0.00 1011.1